Regional Weather Roundup
Issued by NWS Upton, NY

Current Version | Previous Version | Text Only | Print | Product List | Glossary On
Versions: 1 2 3 4 5 6 7 8 9 10 11 12 13 14 15 16 17 18 19 20 21 22 23 24 25 26 27 28 29 30 31 32 33 34 35 36 37 38 39 40 41 42 43 44 45 46 47 48 49 50
926 ASUS41 KOKX 240409 RWROKX REGIONAL WEATHER ROUNDUP NATIONAL WEATHER SERVICE NEW YORK NY 1200 AM EDT SAT JUN 24 2017 NOTE: "FAIR" INDICATES FEW OR NO CLOUDS BELOW 12,000 FEET WITH NO SIGNIFICANT WEATHER AND/OR OBSTRUCTIONS TO VISIBILITY. NYZ071-072-176-178-NJZ106-104-240500- NEW YORK CITY METRO AREA CITY SKY/WX TMP DP RH WIND PRES REMARKS Central Park PTCLDY 79 73 82 VRB7G26 29.65F Bronx Bot Gard N/A 81 72 74 SE3 29.63S LaGuardia APRT MOCLDY 82 74 76 SW10 29.62S Kennedy INTL MOCLDY 72 71 97 S14 29.64F Breezy Point N/A 68 N/A N/A S7 N/A Newark/Liberty CLOUDY 81 73 76 SW14G23 29.62F Teterboro CLOUDY 79 74 84 SW12 29.61S $$ NYZ177-179-078>081-240500- LONG ISLAND NEW YORK CITY SKY/WX TMP DP RH WIND PRES REMARKS Jones Beach N/A 68 N/A N/A S8G15 N/A Matinecock PT NOT AVBL Farmingdale NOT AVBL MacArthur/ISP CLOUDY 73 71 93 SW13 29.64F Shirley PTCLDY 74 72 93 SW10 29.65F Mt Sinai Harb N/A 75 N/A N/A S10 N/A Westhampton CLOUDY 70 67 90 SW10 29.67F East Hampton CLOUDY 70 68 93 SW9 29.65F Montauk N/A 70 69 97 S10G18 29.65F $$ NYZ052-065-067-240500- HUDSON VALLEY CITY SKY/WX TMP DP RH WIND PRES REMARKS White Plains NOT AVBL Larchmont Harb N/A 73 N/A N/A S15 N/A Croton O-T Hud N/A 77 N/A N/A S7 N/A Newburgh MOCLDY 75 73 94 SW8G17 29.63F Montgomery CLOUDY 75 72 90 SW7 29.61F Poughkeepsie LGT RAIN 77 72 84 SW5 29.60S Albany RAIN 75 71 87 SW15 29.57R FOG $$ NJZ001-105-106-008-010-013-015-019>022-104-240500- NEW JERSEY CITY SKY/WX TMP DP RH WIND PRES REMARKS Newark/Liberty CLOUDY 81 73 76 SW14G23 29.62F Teterboro CLOUDY 79 74 84 SW12 29.61S Caldwell CLOUDY 77 73 87 VRB5 29.63S Somerville PTCLDY 74 73 97 CALM 29.63S FOG Linden FAIR 82 72 72 W8 29.63S Perth Amboy N/A 81 N/A N/A SW13 N/A Sussex CLOUDY 74 73 97 SW6 29.63S Andover N/A 73 71 93 VRB3 29.66S Trenton PTCLDY 82 73 74 SW15G21 29.64F Millville PTCLDY 82 75 79 SW8 29.69F Atlantic City CLEAR 77 72 84 S8 29.69F Wrightstown CLEAR 79 73 79 SW13 29.64S Toms River CLEAR 77 72 84 SW10 29.68S Belmar CLEAR 78 73 84 SW12G20 29.66F $$ PAZ047>061-062-071-240500- EASTERN PENNSYLVANIA CITY SKY/WX TMP DP RH WIND PRES REMARKS Philadelphia PTCLDY 83 72 69 SW15 29.66F Allentown LGT RAIN 75 71 87 SW7 29.66S Scranton MOCLDY 73 71 93 SW8 29.64F $$ CTZ002-004>006-009-010-012-RIZ004-006-007-MAZ004-011-015-240500- SOUTHERN NEW ENGLAND IN CT CITY SKY/WX TMP DP RH WIND PRES REMARKS Bradley INTL CLOUDY 76 71 85 S8 29.60F Hartford MOCLDY 76 71 85 S7 29.60F Danbury CLOUDY 76 73 91 SW7 29.64F Wtrbury/Oxford CLOUDY 73 68 83 SW6 29.66S Bridgeport CLOUDY 74 69 85 SW3 29.62F Meriden CLOUDY 74 70 87 S7 29.62F New Haven NOT AVBL Chester FAIR 73 72 94 VRB6 29.65F Groton CLOUDY 69 66 90 SW7 29.63F Wilimantic MOCLDY 77 72 84 S6 29.63F IN RI CITY SKY/WX TMP DP RH WIND PRES REMARKS Providence PTCLDY 73 71 93 SW12 29.64F Block Island CLOUDY 68 67 96 SW20G26 29.65F FOG Westerly CLOUDY 71 68 90 S15 29.64F FOG IN MA CITY SKY/WX TMP DP RH WIND PRES REMARKS Boston MOCLDY 74 70 87 SW9 29.59F Worcester CLOUDY 72 69 90 SW14 29.63F Westfield PTCLDY 75 72 90 S13 N/A Provincetown CLOUDY 66 66 100 SW20 29.65S FOG Nantucket CLOUDY 66 66 100 S21G29 29.70F FOG $$ ANZ330-335-338-340-345-350-353-355-240500- COASTAL MARINE OBSERVATIONS STATION/POSITION TIME SKY/WX TEMP WIND PRES VSBY WAVE AIR SEA DIR/SP/G HT/PER (UTC) (F) (DEG/KT/KT) (MB) (MI) (FT/S) NY HARB ENTRANCE 0250 68 65 200/ 16/ 17 1004.3 4/ 5 20 S FIRE ISLAND 0350 71 68 210/ 17/ 21 1003.7 6/ 6 GREAT SOUTH BAY 0315 72 76 220/ 21/ 23 N/A 23 SSW MONTAUK P 0250 68 64 1005.3 6/ 6 15 E BARNEGAT LI 0330 62 N/A 5/ 6 HUDSON CANYON 0250 71 66 220/ 19/ 23 1006.6 6/ 6 KINGS POINT 0330 73 65 220/ 10/ 13 1003.0 EXECUTION ROCKS 0345 74 180/ 10/ 14 N/A CENTRAL LI SOUND NOT AVBL EASTERN LI SOUND NOT AVBL ROBBINS REEF 0324 220/ 13/ 19 1003.8 $$ >>>>>>>>>>>>>>>>>>>>>>>>>>>> KEY <<<<<<<<<<<<<<<<<<<<<<<<<<< > < > SKY/WX - Sky Condition/Present Weather < > TMP - Temperature in Fahrenheit < > DP - Dew Point in Fahrenheit < > RH - Relative Humidity in Percent < > WIND - Direction (from) and Speed in MPH < > PRES - Mean Sea Level Pressure (inches of Hg) < > WCI - Wind Chill Index < > VSB - VISIBILITY IN MILES < > HX - HEAT INDEX < > TC - TEMPERATURE IN CELSIUS < > VRB - VARIABLE WIND DIRECTION < > < >>>>>>>>>>>>>>>>>>>>>>>>>>>> KEY <<<<<<<<<<<<<<<<<<<<<<<<<<<

USA.gov is the U.S. government's official web portal to all federal, state and local government web resources and services.